Weather Roundup
Issued by NWS

Home | Current Version | Previous Version | Text Only | Print | Product List | Glossary On
Versions: 1 2 3 4 5 6 7 8 9 10 11 12 13 14 15 16 17 18 19 20 21 22 23 24 25 26 27 28 29 30 31 32 33 34 35 36 37 38 39 40 41 42 43 44 45 46 47 48 49 50
877
NZUS93 KARX 250710
HRRWXR

CURRENT HOURLY OBSERVATIONS ACROSS
MUCH OF THE UPPER MISSISSIPPI VALLEY
NATIONAL WEATHER SERVICE LA CROSSE WI
200 AM CDT MON JUL 25 2016


...SOUTHEAST MINNESOTA...


CITY           SKY/WX    TMP DP  RH WIND       PRES   REMARKS
ROCHESTER      CLEAR     64  63  96 W6        30.03R
ROCHESTER/MAYO FAIR      68  64  88 W9        30.02R
WINONA         CLEAR     70  63  78 CALM      29.99R
AUSTIN         CLEAR     66  63  88 W3        30.03S
ALBERT LEA     CLEAR     66  64  94 W5        30.04R
DODGE CENTER   CLEAR     64  61  88 W7        30.03R
PRESTON        CLEAR     64  61  89 W7        30.04R
OWATONNA       CLEAR     64  63  94 CALM      30.03R
FARIBAULT      CLEAR     64  63  94 SW3       30.02S
$$

...ELSEWHERE IN MINNESOTA...


CITY           SKY/WX    TMP DP  RH WIND       PRES   REMARKS
MINNEAPOLIS    CLEAR     71  60  68 W6        29.99S
INTNL FALLS    CLEAR     61  58  90 W7        29.91S
DULUTH         CLEAR     66  61  84 NW9       29.93R
RED WING       CLEAR     64  63  94 CALM      29.97S
REDWOOD FALLS  CLEAR     67  61  81 W6        30.03R
MANKATO        CLEAR     66  61  82 W7        30.03R
WORTHINGTON    CLEAR     63  61  93 W8        30.09S
FAIRMONT       CLEAR     66  61  82 W6        30.05R
$$

...SOUTHWEST WISCONSIN...


CITY           SKY/WX    TMP DP  RH WIND       PRES   REMARKS
LA CROSSE      CLEAR     71  65  81 CALM      29.98R
PRAIRIE DU CHI CLOUDY    70  65  84 CALM      30.02R
BOSCOBEL       CLOUDY    70  67  90 CALM      30.01R
LONE ROCK      CLOUDY    71  67  87 W7        29.99S
PLATTEVILLE    CLOUDY    69  69 100 W5        30.01S
FORT MC COY    CLEAR     62  62  99 E5        30.00R
CAMP DOUGLAS   PTCLDY    62  62  97 W5        29.98R
MAUSTON-NEW LI MOSUNNY   69  65  85 W5        29.98R
VIROQUA        FAIR      66  65  97 SW5       30.03R
WIS DELLS      CLOUDY    69  64  83 W6        29.98S
$$

...ELSEWHERE IN WISCONSIN...


CITY           SKY/WX    TMP DP  RH WIND       PRES   REMARKS
MILWAUKEE      CLOUDY    80  65  59 NW6       29.95R
MADISON        CLOUDY    73  66  78 NW5       29.96R
GREEN BAY      CLOUDY    69  67  93 W9        29.91R
EAU CLAIRE     CLEAR     66  63  90 W3        29.96R
BLACK RVR FLS  FAIR      63  63 100 S3        29.98R
MEDFORD        CLEAR     64  64 100 W7        29.97R
WAUSAU         CLEAR     67  62  84 NW3       29.94R
WIS RAPIDS     CLEAR     66  61  84 W5        29.98R
MARSHFIELD     CLEAR     64  60  87 SW6       29.97R
RICE LAKE      CLEAR     65  60  85 CALM      29.98S
$$

...NORTHEAST IOWA...


CITY           SKY/WX    TMP DP  RH WIND       PRES   REMARKS
WATERLOO       MOCLDY    66  63  90 CALM      30.04R
DUBUQUE        CLOUDY    70  65  84 NW7       30.02S
DECORAH        CLEAR     66  66 100 CALM      30.03R
MASON CITY     CLEAR     65  63  93 W6        30.06R
CHARLES CITY   CLEAR     66  66 100 W5        30.04S
OELWEIN        CLOUDY    68  64  88 NW5       30.05R
$$

...ELSEWHERE IN IOWA...


CITY           SKY/WX    TMP DP  RH WIND       PRES   REMARKS
DES MOINES     PTCLDY    73  64  73 N8        30.04S
IOWA CITY      CLOUDY    74  66  76 N10       30.03R
FORT DODGE     CLEAR     66  63  88 CALM      30.07S
MARSHALLTOWN   PTCLDY    65  64  97 NW3       30.05R
CEDAR RAPIDS   CLOUDY    69  68  96 NW7       30.02R
$$

...NORTHERN ILLINOIS...


CITY           SKY/WX    TMP DP  RH WIND       PRES   REMARKS
CHICAGO-OHARE  CLOUDY    75  67  76 SW9       29.97R
CHICAGO-MIDWAY CLOUDY    74  64  71 SW9       29.97R
MOLINE         CLOUDY    76  66  71 N6        29.99R
ROCKFORD       CLOUDY    76  67  73 CALM      29.99R
PEORIA         CLOUDY    76  73  91 SW6       30.00R
$$

NOTE: "FAIR" INDICATES FEW OR NO CLOUDS BELOW 12,000 FEET WITH NO
SIGNIFICANT WEATHER AND/OR OBSTRUCTIONS TO VISIBILITY. WIND
SPEEDS ARE IN MILES-PER-HOUR.




USA.gov is the U.S. government's official web portal to all federal, state and local government web resources and services.